Wind_Speed
29 28 28 27 24 22 24 25 26 25 26 24 23 23 22 22 18 14 14 13 13 13 13 12 11 11 12 13 14 14 14 14 14 14 14 14 14 15 15 15 15 16 16 17
32 31 31 30 29 26 25 25 26 25 25 24 23 22 22 20 18 15 15 15 14 14 13 12 11 12 13 14 15 15 15 15 15 14 14 14 14 15 15 16 16 16 16 16
34 33 34 35 32 30 28 27 26 26 24 25 25 24 23 22 18 16 15 16 16 16 14 14 14 13 14 15 16 16 16 15 14 14 15 15 15 15 15 15 15 15 15 15
36 36 38 35 33 32 30 29 28 27 26 25 25 25 25 22 21 18 17 16 16 17 16 17 16 15 16 16 17 16 16 15 15 15 15 15 15 15 15 15 15 15 15 15
37 38 38 37 35 34 32 32 31 30 28 26 26 25 25 24 22 20 19 18 17 18 18 18 18 17 17 17 17 17 17 16 16 15 16 15 15 15 15 15 15 15 15 15
38 38 39 36 35 35 35 34 32 31 29 28 27 26 24 23 22 21 20 19 19 19 20 20 19 19 18 18 18 18 18 17 17 16 16 15 15 14 15 15 15 15 15 15
39 39 39 36 35 36 36 35 33 33 30 30 27 25 24 24 23 21 20 19 19 20 20 20 20 20 20 20 20 19 19 19 18 18 17 16 15 15 15 16 16 16 17 17
40 39 39 35 35 36 36 35 33 31 29 28 25 25 24 22 22 21 20 19 20 20 19 20 20 20 20 20 21 20 20 19 19 18 17 16 16 16 16 16 16 17 18 18
41 39 36 36 35 35 36 35 33 31 30 28 26 26 23 22 22 23 21 20 20 20 20 20 20 20 21 21 21 20 20 19 19 18 18 18 18 18 18 18 18 18 18 18
40 39 37 36 35 33 33 34 33 31 29 28 27 26 24 23 23 23 21 20 20 21 21 21 21 21 21 21 21 21 20 20 20 19 19 19 19 18 18 18 18 18 18 19
38 37 36 35 34 32 31 31 32 31 29 29 28 26 25 22 22 21 21 21 21 21 22 22 22 22 22 22 21 21 21 20 20 19 19 19 19 19 19 19 20 19 20 20
38 37 35 34 34 32 31 32 33 33 31 29 28 26 24 23 21 21 22 22 22 22 23 23 23 23 22 21 21 21 21 20 20 20 20 19 19 19 19 19 20 20 20 20
35 35 35 33 33 33 32 30 29 29 29 28 27 26 25 24 23 22 23 22 23 23 23 23 23 23 22 22 21 20 20 20 20 20 20 19 19 18 19 20 20 20 20 20
34 34 33 33 30 29 28 28 28 27 26 25 25 25 24 23 23 22 23 23 23 23 23 23 22 22 21 20 19 19 19 19 19 19 19 19 18 18 18 19 19 19 20 21
32 31 30 29 29 28 27 26 26 25 26 24 23 23 23 23 22 22 22 23 23 23 22 22 21 21 20 19 18 18 17 17 18 18 18 18 18 18 18 18 19 20 21 22
30 29 28 27 27 27 26 24 23 23 23 23 23 23 23 22 22 22 22 22 22 21 21 21 20 19 19 18 17 17 17 17 17 17 17 17 17 17 18 18 20 21 22 23
26 25 26 26 25 26 26 23 22 22 23 23 23 23 22 22 22 22 22 21 20 20 19 19 18 17 17 16 16 16 16 16 15 15 15 16 17 18 19 20 21 23 24 25
21 19 20 20 18 19 20 21 21 22 22 21 21 21 21 21 21 21 20 19 18 17 17 17 16 15 15 15 15 15 15 15 15 16 17 18 19 20 21 22 23 23 24 25
21 20 20 20 20 19 19 20 20 20 20 20 20 20 20 20 19 19 18 18 17 16 16 16 15 15 15 15 15 15 15 16 17 18 19 19 20 21 22 22 23 24 25 26
18 18 19 19 18 19 19 19 20 20 20 19 18 18 18 18 18 18 17 16 16 16 16 15 15 15 14 14 14 15 16 16 18 18 19 20 20 21 22 22 23 24 25 25
18 17 17 18 18 18 18 19 19 19 18 18 17 17 17 16 16 16 15 15 15 15 15 15 15 14 14 14 14 15 16 17 18 18 19 19 20 21 22 22 23 24 24 24
18 17 17 17 18 18 18 18 18 18 17 17 17 17 16 15 15 14 14 14 14 14 14 14 14 14 14 14 15 16 17 18 18 18 19 19 20 21 22 23 23 24 24 25
17 17 17 16 17 17 18 18 17 17 16 16 15 15 14 14 13 13 13 13 14 14 13 13 13 13 14 15 16 16 17 17 18 18 19 20 21 22 22 23 24 25 25 26
17 17 17 17 17 18 18 17 16 16 16 15 15 15 14 13 13 13 13 13 13 13 14 14 14 14 15 15 15 15 16 16 17 19 20 21 21 22 23 24 25 25 26 27
16 16 16 16 16 17 17 16 16 16 16 15 15 14 13 13 13 13 13 13 13 13 13 13 13 14 14 14 15 15 16 17 18 19 21 22 22 23 24 25 26 26 27 27
14 14 14 14 15 15 15 15 14 14 13 14 13 13 13 13 12 12 12 12 12 12 12 12 13 13 13 14 16 17 18 19 20 21 22 23 24 25 26 26 27 27 27 27
14 14 14 14 14 14 13 13 12 12 12 12 12 12 12 11 11 12 12 11 11 12 12 13 13 14 15 16 18 18 19 20 21 22 23 25 26 26 27 27 27 27 27 27
Wind_Direction
221 220 223 228 230 233 237 241 244 247 248 253 261 270 279 288 292 295 301 303 305 307 307 305 296 300 306 311 309 307 306 305 300 294 286 282 280 278 277 275 273 272 271 272
223 223 224 228 230 231 233 238 242 246 246 249 258 266 274 285 289 291 291 295 301 303 302 298 296 301 307 310 311 309 308 306 302 296 292 285 283 282 277 275 273 274 274 273
225 226 228 229 231 234 236 239 241 243 247 250 254 264 273 280 283 281 282 289 296 299 300 302 301 301 304 306 308 309 307 305 301 295 293 288 284 283 283 280 277 276 274 275
230 228 230 232 233 236 238 239 240 240 243 251 257 264 270 275 277 278 281 287 291 293 295 297 298 298 300 301 303 305 306 303 299 297 296 292 289 286 283 282 280 278 274 273
232 232 234 233 233 235 238 239 241 241 243 249 257 262 267 271 273 275 280 282 285 288 292 293 295 296 297 296 296 298 301 302 299 296 296 295 290 286 281 282 279 275 273 273
234 235 235 235 234 235 238 240 242 243 244 250 256 261 267 271 272 273 277 277 280 284 288 290 292 293 293 291 292 293 295 297 298 296 296 295 291 286 283 282 280 279 278 277
235 236 237 236 234 236 237 240 244 246 247 252 253 258 263 268 271 272 276 276 279 283 286 289 291 292 292 291 291 291 291 292 292 294 294 295 293 291 288 285 282 280 278 278
234 236 237 236 235 236 239 243 245 248 251 254 253 255 257 263 267 269 274 277 279 282 285 288 288 289 290 291 290 291 290 289 290 291 291 292 292 291 290 286 281 280 279 280
234 237 237 235 236 237 238 241 245 249 252 256 258 259 257 263 266 269 272 275 277 280 284 287 288 288 288 289 290 290 289 289 289 290 288 288 289 289 291 290 287 285 283 282
233 234 234 234 234 236 238 240 242 245 248 253 258 259 258 262 265 268 268 272 276 279 282 285 287 287 288 287 288 288 287 288 288 288 288 287 288 287 287 289 289 287 285 285
233 233 232 232 231 232 236 237 238 243 246 249 256 261 260 263 267 267 270 274 277 280 282 285 286 286 286 286 286 286 286 286 285 285 287 287 287 287 285 286 287 287 286 287
232 230 231 232 230 233 236 239 241 244 245 249 256 261 263 265 265 268 270 273 276 279 281 282 284 285 285 285 286 285 285 284 285 286 288 289 289 288 285 286 287 288 289 290
231 232 232 232 231 233 235 236 241 244 247 251 256 260 262 263 266 268 269 272 276 279 281 282 283 284 284 284 285 284 284 284 285 285 287 287 287 286 284 287 289 289 288 288
233 232 232 232 232 232 235 237 240 245 247 250 253 257 260 263 266 268 271 274 276 277 279 281 281 282 283 283 282 283 283 285 287 286 285 286 286 285 286 288 289 288 288 289
232 231 229 230 232 234 236 238 240 244 248 252 256 260 262 266 268 269 271 274 275 276 277 278 279 279 280 279 279 281 283 285 286 285 286 283 283 285 286 287 288 289 290 291
230 228 225 228 232 234 236 239 241 242 245 251 257 260 262 265 268 271 272 273 275 275 274 275 275 274 274 274 276 278 280 282 284 284 284 283 285 288 290 291 291 291 291 292
231 229 228 229 231 235 237 238 241 244 247 254 257 258 260 263 267 269 270 271 271 271 271 271 270 270 272 273 275 279 281 282 282 285 288 289 291 293 293 293 295 296 296 295
222 224 226 227 225 227 230 235 240 243 247 251 253 256 259 261 263 265 265 265 266 266 266 266 267 268 272 275 276 279 282 284 286 289 290 291 292 294 296 296 297 297 298 298
224 226 226 227 229 231 234 237 240 243 246 250 253 255 256 257 259 260 261 261 261 261 262 265 266 269 274 277 278 278 280 284 288 291 293 294 294 295 297 298 298 299 300 301
219 222 226 229 232 231 234 237 239 241 245 248 250 251 252 253 254 256 257 257 258 258 262 264 266 269 272 276 278 281 284 288 291 294 296 296 297 298 299 301 302 303 303 303
225 228 230 231 231 231 233 234 235 237 239 243 246 247 249 249 250 251 253 254 255 258 261 263 265 268 271 276 280 284 287 290 293 295 297 299 300 301 301 302 303 304 304 304
224 225 225 226 227 228 229 230 231 232 235 238 241 242 242 243 245 246 250 253 255 257 259 263 266 268 271 277 282 286 289 290 292 295 298 300 301 302 302 303 304 305 305 306
218 217 219 222 223 224 225 227 229 231 231 231 233 236 237 240 242 244 247 251 253 254 259 264 268 271 275 280 283 287 290 291 293 296 298 300 302 303 304 305 306 306 307 307
214 215 217 220 222 222 223 224 226 227 225 226 230 233 235 237 239 243 247 250 253 258 263 266 270 275 278 283 287 290 292 294 295 297 299 301 303 305 306 306 307 308 308 308
209 210 212 216 217 218 218 219 218 220 221 224 226 228 233 237 241 244 248 252 256 259 261 264 268 275 281 285 288 291 294 296 297 299 301 303 305 306 307 308 308 308 309 309
203 204 206 209 211 211 211 211 212 214 214 215 219 227 234 237 241 244 246 248 252 256 261 266 274 281 286 290 292 293 295 297 298 300 302 304 305 306 307 308 308 308 309 309
197 197 198 200 201 202 203 204 207 209 210 213 221 227 231 234 238 240 242 247 255 263 268 273 280 286 289 292 294 295 296 297 299 301 303 305 306 307 308 308 308 308 309 310
Height
5836 5840 5843 5846 5848 5850 5852 5854 5857 5859 5861 5862 5863 5865 5866 5865 5864 5864 5865 5865 5864 5864 5863 5863 5862 5861 5860 5859 5857 5856 5855 5854 5852 5851 5850 5850 5849 5848 5848 5847 5846 5845 5844 5843
5831 5834 5837 5840 5843 5845 5847 5849 5851 5854 5856 5858 5859 5860 5861 5862 5862 5861 5862 5862 5862 5861 5860 5859 5859 5859 5857 5856 5854 5853 5852 5850 5849 5848 5847 5846 5845 5844 5843 5842 5842 5841 5840 5839
5825 5829 5831 5834 5838 5840 5842 5844 5847 5849 5852 5853 5855 5856 5858 5858 5857 5857 5858 5859 5858 5858 5857 5856 5856 5855 5853 5852 5851 5850 5848 5847 5845 5844 5843 5842 5841 5840 5839 5838 5837 5836 5835 5834
5818 5823 5824 5831 5834 5835 5837 5839 5841 5844 5847 5849 5851 5852 5853 5854 5854 5854 5854 5854 5854 5854 5853 5853 5852 5850 5850 5848 5847 5846 5845 5843 5842 5841 5839 5837 5836 5835 5834 5833 5832 5832 5831 5830
5811 5814 5817 5823 5827 5830 5831 5833 5836 5838 5841 5844 5846 5847 5848 5850 5850 5850 5850 5850 5850 5850 5849 5849 5848 5847 5846 5845 5843 5842 5841 5839 5838 5836 5835 5833 5832 5831 5830 5829 5828 5827 5827 5826
5804 5807 5810 5817 5822 5823 5826 5827 5830 5833 5836 5838 5840 5842 5844 5844 5844 5845 5845 5845 5845 5845 5844 5844 5843 5842 5841 5840 5839 5838 5836 5835 5834 5832 5831 5830 5828 5827 5826 5825 5824 5823 5822 5822
5796 5799 5803 5810 5814 5817 5820 5822 5825 5827 5829 5831 5833 5836 5838 5838 5839 5839 5839 5840 5840 5840 5839 5839 5838 5837 5836 5835 5834 5832 5831 5830 5829 5828 5826 5825 5824 5822 5821 5820 5819 5818 5818 5817
5789 5792 5799 5803 5807 5810 5813 5816 5818 5821 5823 5825 5826 5829 5830 5832 5833 5834 5834 5835 5835 5834 5834 5833 5832 5831 5830 5829 5828 5827 5825 5825 5824 5823 5821 5820 5819 5818 5817 5815 5814 5813 5812 5811
5782 5787 5792 5796 5799 5803 5806 5810 5813 5815 5817 5820 5821 5823 5824 5825 5827 5828 5829 5829 5829 5829 5828 5828 5827 5826 5825 5824 5822 5821 5820 5819 5818 5817 5816 5815 5814 5813 5812 5810 5809 5808 5807 5806
5774 5778 5784 5788 5792 5796 5799 5803 5806 5809 5811 5814 5816 5817 5818 5819 5820 5821 5822 5823 5823 5823 5822 5822 5821 5820 5819 5818 5817 5815 5815 5814 5813 5812 5811 5809 5808 5807 5806 5805 5804 5803 5801 5800
5767 5771 5776 5780 5785 5789 5793 5796 5799 5802 5805 5807 5809 5810 5812 5813 5814 5815 5816 5816 5816 5816 5816 5816 5815 5814 5813 5811 5811 5810 5809 5808 5807 5806 5805 5804 5802 5801 5800 5799 5798 5797 5796 5794
5760 5765 5769 5773 5777 5782 5786 5790 5793 5796 5798 5800 5802 5804 5806 5807 5808 5809 5809 5810 5810 5810 5810 5809 5808 5807 5806 5805 5804 5804 5803 5802 5801 5800 5799 5798 5796 5795 5794 5793 5792 5791 5789 5788
5753 5758 5762 5765 5769 5774 5779 5782 5786 5789 5791 5793 5796 5798 5799 5800 5801 5802 5803 5803 5804 5803 5803 5802 5802 5801 5800 5799 5798 5798 5797 5796 5795 5794 5793 5792 5790 5789 5788 5787 5786 5785 5783 5782
5747 5751 5755 5759 5762 5766 5771 5775 5779 5782 5784 5787 5789 5791 5793 5794 5794 5795 5796 5797 5797 5797 5796 5796 5795 5795 5794 5793 5793 5792 5791 5790 5789 5788 5787 5786 5785 5784 5782 5781 5780 5778 5777 5775
5741 5745 5748 5752 5756 5760 5765 5768 5772 5775 5778 5781 5783 5784 5786 5787 5788 5789 5790 5790 5790 5790 5789 5789 5789 5789 5788 5788 5787 5786 5785 5785 5784 5783 5781 5780 5779 5778 5777 5775 5774 5773 5771 5769
5735 5738 5742 5747 5751 5754 5758 5762 5765 5768 5771 5774 5776 5778 5779 5781 5782 5782 5783 5783 5783 5783 5783 5783 5783 5783 5782 5782 5782 5781 5780 5779 5778 5777 5776 5774 5773 5772 5771 5770 5768 5766 5764 5762
5729 5732 5736 5741 5744 5749 5753 5756 5759 5762 5765 5768 5770 5771 5773 5774 5775 5776 5776 5777 5777 5777 5777 5777 5777 5777 5777 5777 5776 5776 5775 5774 5773 5772 5771 5770 5769 5767 5765 5764 5762 5760 5757 5755
5725 5728 5732 5736 5739 5743 5747 5750 5753 5756 5759 5761 5763 5765 5767 5768 5769 5770 5770 5771 5771 5771 5772 5772 5772 5772 5772 5772 5771 5771 5770 5769 5769 5768 5766 5765 5763 5761 5759 5757 5755 5752 5750 5747
5721 5725 5728 5732 5735 5738 5741 5744 5748 5750 5753 5755 5757 5759 5761 5762 5763 5764 5765 5765 5766 5766 5767 5767 5767 5767 5767 5767 5767 5766 5765 5765 5764 5762 5761 5759 5757 5755 5753 5750 5748 5745 5742 5739
5717 5721 5724 5727 5730 5733 5736 5739 5742 5745 5748 5750 5752 5754 5755 5757 5758 5759 5759 5760 5761 5761 5762 5762 5763 5763 5763 5762 5762 5761 5760 5760 5758 5757 5755 5753 5751 5749 5746 5744 5741 5738 5735 5732
5713 5717 5720 5723 5726 5729 5732 5735 5738 5740 5743 5745 5747 5749 5750 5751 5752 5753 5754 5755 5756 5757 5757 5758 5758 5758 5758 5758 5757 5756 5755 5754 5753 5751 5749 5747 5745 5742 5740 5737 5735 5732 5729 5726
5710 5713 5716 5719 5722 5725 5728 5731 5733 5736 5738 5740 5742 5744 5745 5746 5748 5749 5750 5751 5752 5752 5753 5753 5753 5753 5753 5753 5752 5751 5750 5749 5747 5745 5743 5741 5739 5736 5734 5731 5728 5725 5722 5719
5706 5709 5713 5716 5719 5721 5724 5727 5729 5732 5734 5736 5738 5739 5740 5742 5743 5745 5746 5747 5747 5748 5748 5749 5749 5749 5748 5748 5747 5746 5744 5743 5741 5740 5737 5735 5733 5730 5727 5725 5722 5719 5716 5712
5702 5705 5709 5712 5715 5718 5720 5723 5726 5728 5730 5732 5734 5735 5737 5738 5740 5741 5742 5743 5743 5744 5744 5744 5744 5743 5743 5742 5742 5740 5739 5737 5736 5734 5732 5729 5727 5724 5721 5718 5715 5712 5709 5705
5699 5702 5705 5708 5711 5714 5717 5719 5722 5724 5726 5728 5730 5732 5734 5735 5737 5737 5738 5739 5739 5740 5740 5740 5739 5739 5739 5738 5736 5735 5734 5732 5730 5728 5726 5724 5721 5718 5715 5712 5709 5705 5702 5698
5697 5699 5702 5705 5708 5711 5713 5716 5718 5721 5723 5725 5727 5729 5730 5732 5733 5734 5734 5735 5735 5736 5736 5735 5735 5735 5734 5733 5731 5730 5728 5727 5724 5722 5720 5717 5715 5712 5709 5705 5702 5698 5695 5691
5694 5697 5700 5703 5706 5708 5711 5714 5716 5718 5720 5722 5724 5726 5727 5728 5729 5730 5731 5731 5732 5732 5732 5731 5731 5730 5729 5728 5726 5725 5723 5721 5719 5716 5713 5711 5708 5705 5702 5698 5695 5692 5688 5685